NOAA 16 DEB, 42412

Orbit data source: Space-Track

NOAA 16 DEB, 42412 is space debris in SSO originally from a launch on Thu, 21 Sep 2000 UTC launched from the Air Force Western Test Range (AFWTR). Debris objects in space refer to the collection of defunct objects orbiting the Earth. Examples of debris include non-operational satellites, rocket bodies, and fragments generated from explosions, collisions, or faulty payload assembly.

Loading next visibility...
Identifier
42412, 2000-055TG
Orbit
SSO
Country
Flag of USUS
Related business
Manufacturer
Unknown
Mission
Spacecraft
Bus & Motor
Unknown
Mass
Unknown
Launch date (UTC)
2000-09-21 (25 years ago)
Launch vehicle
Unknown
Launch site
Air Force Western Test Range (AFWTR)
Object type
Payload
Rocket body
Debris
Shape & HBR
Unknown shape, 0.1 m
Radar Cross Section
Small (<0.1 m²)

Expand to show TLE details & history
Last TLE update: 21 hours ago

TLE from 21 hours ago
0 NOAA 16 DEB
1 42412U 00055TG  25287.38191598  .00803910  00000-0  22926-1 0  9994
2 42412  98.7771  73.2363 0021775 299.7229  60.1842 15.33449137498394
Epoch: 2025-10-14T09:09Z
TLE epoch observation values (Epoch: 2025-10-14T09:09:57.540Z)
Latitude
-0.00005°
Longitude
-87.42459°
Altitude
461.21 km
Speed
7.64 km/s
True Right ascension
04h 52m 56s
True Declination
0° 00' 00"
Sunlit
Object was in full shadow at epoch
Visualization orbit readout
Latitude
Unknown
Longitude
Unknown
Altitude
Unknown
Speed
Unknown
Apparent Right ascension
Unknown
Apparent Declination
Unknown
Sunlit
N/A
Visualization observer readout
Local Sidereal Time
00:34:05
Azimuth
Unknown
Elevation
Unknown
Doppler factor
Unknown
Orbital elements
Apogee altitude
477.439 km
Perigee altitude
447.648 km
Semi-major axis
6,840.68 km
Eccentricity
0.00218
Inclination
98.7771°
RAAN
73.2363°
Arg. of periapsis
299.7229°
True anomaly
60.40099°
Mean anomaly
60.1842°
Eccentric anomaly
60.29256°
Mean motion
3.83614 °/min
Orbital period
93.84 mins
BSTAR
0.022926
Loading maneuver chart data...
Computing Atmospheric mass density...
Loading historical data...
Loading historical data...
Loading historical data...
Loading historical data...
Loading historical data...
Loading historical data...
Loading historical data...

Documentation

Showing up to 5 results
|